Airfield :
LOGIN :

Register | Disclaimer

   EN    FR    IT 

 










Legend :    VFR   Marginal VFR   IFR   Intensive IFR   Very Intensive IFR
Visi :
Ceiling :
>= 8 km
>= 3000ft
5 to 8 km
1000 to 3000 ft
1500m to 5 km
500 to 1000 ft
800 to 1500m
200 to 500 ft
< 800m
< 200 ft
Symbols :   Thunderstorms  Fog  Heavy snow  Heavy precipitations  Wind > 20 kt
SIGMETs :     Misc.  Thunderstorms  Icing  Turbulence  Mountain Waves  Volcanic Ashes







- Airport Elevation : 256 ft
- IATA code : CFR
- Download approach charts


LFRK - Caen

CURRENT METAR :
  • 220400Z AUTO VRB02KT CAVOK 08/07 Q1021

EXPIRED METARs :
  • 220330Z AUTO 26004KT CAVOK 08/08 Q1021
  • 220300Z AUTO 27005KT CAVOK 09/08 Q1021
  • 220230Z AUTO 29005KT 9999 FEW032 09/08 Q1021
  • 220200Z AUTO 28006KT CAVOK 10/09 Q1021
  • 220130Z AUTO 28007KT CAVOK 10/09 Q1021

Expired Forecast.
Met : +33 2 31 26 68 11
No reported NOTAMs for that airfield.



MET'MAP, your aeronautical weather chart ! - Copyright ORBIFLY December 2007 - Disclaimer

ORBIFLY MET'MAP TEAM :

Programming & Development : Alexandra Zaïnal
Concept & Development : Baudouin d'Aumeries
Co-Development & Prog : Marc-Olivier Méhu
Technical & hardware support : Manuel Goepfert

Contact : metmap@orbifly.com




SOURCES & CREDITS :

   NOAA